Airfield :
LOGIN :

Register | Disclaimer

   EN    FR    IT 

 










Legend :    VFR   Marginal VFR   IFR   Intensive IFR   Very Intensive IFR
Visi :
Ceiling :
>= 8 km
>= 3000ft
5 to 8 km
1000 to 3000 ft
1500m to 5 km
500 to 1000 ft
800 to 1500m
200 to 500 ft
< 800m
< 200 ft
Symbols :   Thunderstorms  Fog  Heavy snow  Heavy precipitations  Wind > 20 kt
SIGMETs :     Misc.  Thunderstorms  Icing  Turbulence  Mountain Waves  Volcanic Ashes






- Airport Elevation : 49 ft
- IATA code : SEN


EGMC - Southend

CURRENT METAR :
  • 280750Z 32013KT 9999 FEW015 00/M03 Q1004

EXPIRED METARs :
  • 280720Z 32013KT 9999 FEW015 00/M02 Q1004
  • 280650Z 32014KT 9999 FEW015 01/M02 Q1003
  • 280620Z 32015KT 9999 FEW016 01/M02 Q1003
  • 280550Z 32015KT 9999 BKN015 01/M01 Q1003

TAF TAF EGMC
Valid from the 28 at 06:00 until the 28 at 15:00 UTC


280449Z 2806/2815 33015G25KT 9999 SCT018
TEMPO 2806/2809 BKN012
PROB30
TEMPO 2806/2809 6000 SHRA BKN008
PROB30
TEMPO 2809/2815 BKN014
BECMG 2812/2815 33012KT



MET'MAP, your aeronautical weather chart ! - Copyright ORBIFLY December 2007 - Disclaimer

ORBIFLY MET'MAP TEAM :

Programming & Development : Alexandra Zaïnal
Concept & original design : Baudouin d'Aumeries
Assistance for programming : Marc-Olivier Méhu
Technical & hardware support : Manuel Goepfert

Contact : metmap@orbifly.com




SOURCES & CREDITS :

   NOAA